Weather Service Report


347 
ASUS44 KLZK 301505
RWRLZK

WEATHER ROUNDUP FOR ARKANSAS
NATIONAL WEATHER SERVICE LITTLE ROCK AR
1000 AM CDT SAT JUL 30 2016

NOTE: "FAIR" INDICATES FEW OR NO CLOUDS BELOW 12,000 FEET WITH NO
SIGNIFICANT WEATHER AND/OR OBSTRUCTIONS TO VISIBILITY.

ARZ001-003-010-029-301600-
NORTHWEST ARKANSAS
  
CITY           SKY/WX    TMP DP  RH WIND       PRES   REMARKS
FAYETTEVILLE   MOSUNNY   80  73  79 CALM      30.04S                  
FORT SMITH     MOSUNNY   81  71  71 E5        30.00S HX  85           
HARRISON       MOSUNNY   79  73  82 SW5       30.04F                  
BENTONVILLE    SUNNY     81  70  69 SW3       30.05S                  
ROGERS         SUNNY     81  72  74 SW3       30.05S HX  85           
SILOAM SPGS    CLOUDY    81  66  61 S3        30.05S                  
HIGHFILL       SUNNY     79  74  84 SW3       30.04S                  
SPRINGDALE     SUNNY     79  72  78 CALM      30.06S                  
$$

ARZ004-005-016-301600-
NORTH CENTRAL ARKANSAS
  
CITY           SKY/WX    TMP DP  RH WIND       PRES   REMARKS
BATESVILLE     PTSUNNY   79  73  83 W5        30.02S                  
FLIPPIN        CLOUDY    73  70  88 CALM      30.01S                  
MTN HOME       CLOUDY    73  72  96 CALM      30.03S                  
$$

ARZ040-041-301600-
WEST CENTRAL ARKANSAS
  
CITY           SKY/WX    TMP DP  RH WIND       PRES   REMARKS
MENA             N/A    N/A N/A N/A MISG        N/A                   
MOUNT IDA      MOSUNNY   78  71  79 CALM      30.01F                  
$$

ARZ009-017-025-026-028-301600-
NORTHEAST ARKANSAS
  
CITY           SKY/WX    TMP DP  RH WIND       PRES   REMARKS
CORNING          N/A     75  75 100 CALM      30.01S                  
JONESBORO      SUNNY     80  71  74 S6        30.00S                  
NEWPORT        PTSUNNY   80  73  79 CALM      30.02R                  
WALNUT RIDGE   SUNNY     77  70  78 SW3       30.00S                  
BLYTHEVILLE    MOSUNNY   80  73  79 CALM      30.00F                  
$$

ARZ022-023-033-042-044-301600-
CENTRAL ARKANSAS
  
CITY           SKY/WX    TMP DP  RH WIND       PRES   REMARKS
LITTLE ROCK    PTSUNNY   82  71  69 W9        30.02R HX  86           
N LITTLE ROCK    N/A     79  74  85 CALM      29.99S                  
JACKSONVILLE   CLOUDY    77  74  92 CALM      30.02R                  
SEARCY         PTSUNNY   77  74  90 SW3       30.12F                  
HOT SPRINGS    PTSUNNY   75  72  90 CALM      30.04S THUNDER          
RUSSELLVILLE   CLOUDY    79  74  84 CALM      30.01S                  
$$

ARZ036-301600-
EAST ARKANSAS
  
CITY           SKY/WX    TMP DP  RH WIND       PRES   REMARKS
WEST MEMPHIS   MOSUNNY   79  74  84 S7        30.00R                  
$$

ARZ050-053-066-070-073-301600-
SOUTHWEST ARKANSAS
  
CITY           SKY/WX    TMP DP  RH WIND       PRES   REMARKS
ARKADELPHIA    FAIR      77  72  84 CALM      30.03S                  
CAMDEN         SUNNY     81  72  74 CALM      30.02F                  
TEXARKANA      PTSUNNY   84  72  67 SW9       30.02S HX  89           
EL DORADO      MOSUNNY   82  74  76 SW7       30.03F HX  88           
DE QUEEN       SUNNY     79  72  79 VRB5      30.00F                  
$$

ARZ056-057-069-301600-
SOUTHEAST ARKANSAS
  
CITY           SKY/WX    TMP DP  RH WIND       PRES   REMARKS
PINE BLUFF     SUNNY     82  71  69 W7        30.02S HX  86           
STUTTGART      SUNNY     82  73  74 SW7       30.01S HX  88           
MONTICELLO     MOSUNNY   84  74  71 SW6       30.03S HX  91           

$$


  

Return to Home page


Western Regional Climate Center, wrcc@dri.edu